San Jose, Costa Rica

2:09 PM CST on April 23, 2018 (GMT -0600)
Juan Santamaria International

Weather History for MROC - December, 2011

Change the Weather History Date:

Tuesday, December 27, 2011

  Actual Average Record
Temperature  
Mean Temperature 73 °F -  
Max Temperature 82 °F 80 °F 87 °F (1997)
Min Temperature 64 °F 63 °F 60 °F (1997)
Cooling Degree Days 8    
Growing Degree Days 23 (Base 50)    
Moisture  
Dew Point 56 °F    
Average Humidity 56    
Maximum Humidity 73    
Minimum Humidity 30    
Precipitation  
Precipitation 0.00 in 0.01 in - ()
Sea Level Pressure  
Sea Level Pressure 29.97 in    
Wind  
Wind Speed 11 mph ()    
Max Wind Speed 18 mph    
Max Gust Speed 23 mph    
Visibility 7.0 miles    
Events      
Averages and records for this station are not official NWS values.
T = Trace of Precipitation, MM = Missing Value Source: Averaged Metar Reports

Daily Weather History Graph

Daily Weather History Graph

Search for Another Location

Airport or City:

Astronomy

Dec. 27, 2011 Rise Set
Actual Time 5:51 AM CST 5:24 PM CST
Civil Twilight 5:28 AM CST 5:47 PM CST
Nautical Twilight 5:02 AM CST 6:13 PM CST
Astronomical Twilight 4:36 AM CST 6:39 PM CST
Moon 8:15 AM CST (12/27) 8:21 PM CST (12/27)
Length of Visible Light 12h 18m
Length of Day
11h 32m
Waxing Crescent, 11% of the Moon is Illuminated
Dec 27
Waxing Crescent
Jan 1
First Quarter
Jan 9
Full
Jan 16
Last Quarter
Jan 23
New

Hourly Weather History & Observations

Time (CST) Temp. Heat Index Dew Point Humidity Pressure Visibility Wind Dir Wind Speed Gust Speed Precip Events Conditions
12:00 AM 66.2 °F - 57.2 °F 73% 30.00 in 6.2 mi ESE 9.2 mph - N/A   Unknown
1:00 AM 66.2 °F - 55.4 °F 68% 29.98 in 6.2 mi ESE 9.2 mph - N/A   Unknown
3:00 AM 68.0 °F - 57.2 °F 68% 29.95 in 6.2 mi ESE 11.5 mph - N/A   Unknown
4:00 AM 66.2 °F - 57.2 °F 73% 29.95 in 6.2 mi ESE 12.7 mph - N/A   Unknown
5:00 AM 64.4 °F - 55.4 °F 73% - 6.2 mi ESE 13.8 mph - N/A   Unknown
6:00 AM 64.4 °F - 55.4 °F 73% 29.98 in 6.2 mi East 11.5 mph - N/A   Unknown
7:00 AM 69.8 °F - 55.4 °F 60% 30.00 in 6.2 mi ESE 18.4 mph - N/A   Unknown
8:00 AM 73.4 °F - 57.2 °F 57% 30.01 in 6.2 mi East 17.3 mph - N/A   Unknown
9:00 AM 75.2 °F - 55.4 °F 50% 30.01 in 6.2 mi ESE 11.5 mph 23.0 mph N/A   Unknown
10:00 AM 77.0 °F - 55.4 °F 47% 30.00 in 6.2 mi East 17.3 mph - N/A   Unknown
11:00 AM 78.8 °F - 53.6 °F 42% 29.99 in - East 16.1 mph - N/A   Clear
12:00 PM 80.6 °F 80.5 °F 55.4 °F 42% 29.97 in - East 11.5 mph - N/A   Clear
1:00 PM 82.4 °F 81.7 °F 55.4 °F 39% 29.95 in - East 12.7 mph - N/A   Clear
2:00 PM 80.6 °F 80.3 °F 53.6 °F 39% 29.94 in - East 12.7 mph - N/A   Clear
3:00 PM 81 °F - 55 °F 30% 29.85 in 12 mi East 11.5 mph - -   Scattered Clouds
3:00 PM 80.6 °F 80.5 °F 55.4 °F 42% 29.93 in 6.2 mi East 11.5 mph - N/A   Scattered Clouds
4:00 PM 78.8 °F - 53.6 °F 42% 29.92 in 6.2 mi East 10.4 mph - N/A   Scattered Clouds
5:00 PM 75.2 °F - 55.4 °F 50% 29.94 in 6.2 mi ENE 11.5 mph - N/A   Partly Cloudy
6:00 PM 72 °F - 56 °F 47% 29.83 in 12 mi East 9.2 mph - -  
6:00 PM 71.6 °F - 55.4 °F 57% 29.96 in 6.2 mi East 9.2 mph - N/A   Unknown
7:00 PM 69.8 °F - 59.0 °F 68% 29.98 in 6.2 mi East 11.5 mph - N/A   Unknown
8:00 PM 69.8 °F - 59.0 °F 68% 30.02 in 6.2 mi East 9.2 mph - N/A   Unknown
9:00 PM 70 °F - 56 °F 53% 29.90 in 12 mi East 10.4 mph - -  
9:00 PM 69.8 °F - 57.2 °F 64% 30.03 in 6.2 mi East 10.4 mph - N/A   Unknown
10:00 PM 68.0 °F - 57.2 °F 68% 30.03 in 6.2 mi East 9.2 mph - N/A   Unknown
11:00 PM 69.8 °F - 57.2 °F 64% 30.03 in 6.2 mi East 9.2 mph - N/A   Unknown